Find Starlink 37790

NORAD ID: 69312 Int'l Des: 2026-119 Owner: SPXS Country: US Constellation: starlink operational
LEOCIRCULARRETROGRADE

現在のビュー

3D地球を読み込み中...

About Starlink 37790

Starlink 37790 (NORAD 69312) is a starlink constellation satellite (v2 mini) launched May 29, 2026 by SPXS of US. It operates in LEO, CIRCULAR, RETROGRADE orbit with a mass of 575.00 kg.

次回通過

Passes for default location (London). Set your location on the main map for personalized predictions.

高度履歴

Loading altitude history...

軌道要素

1 69312U 26119S 26225.05164839 .00007179 00000-0 22444-3 0 9996
2 69312 97.2836 250.3768 0001161 102.6007 257.5366 15.33450308 12777
Epoch: Aug 13, 2026 • Age: 14 hours

現在のステータス

高度 476.9 km
遠地点 / 近地点 N/A
速度 7.63 km/s
衛星直下点 69.68°N, 34.17°E
打ち上げ日 May 29, 2026
運用期間 0.2 years
タイプ internet

技術仕様

分類 Payload
質量 575.00 kg
乾燥質量 530.00 kg
総質量 575.00 kg
長さ 0.30 m
直径 4.10 m
スパン 29.00 m
形状 Box + pan
製造者 SPXS
バスタイプ Starlink V2MO
フェーズステータス In Orbit
所有者/国 SPXS/US

Most Searched